TimeCST,TemperatureF,Dew PointF,Humidity,Sea Level PressureIn,VisibilityMPH,Wind Direction,Wind SpeedMPH,Gust SpeedMPH,PrecipitationIn,Events,Conditions,WindDirDegrees,DateUTC
12:53 AM,53.1,51.1,93,30.23,5.0,North,5.8,-,N/A,,Overcast,350,2012-11-28 06:53:00
1:53 AM,53.1,50.0,89,30.24,4.0,North,5.8,-,N/A,,Overcast,350,2012-11-28 07:53:00
2:53 AM,52.0,48.9,89,30.26,5.0,North,10.4,-,N/A,,Overcast,350,2012-11-28 08:53:00
3:53 AM,51.1,48.9,92,30.27,3.0,NNW,5.8,-,N/A,,Overcast,340,2012-11-28 09:53:00
4:46 AM,50.0,46.4,87,30.27,4.0,NNW,8.1,-,N/A,,Overcast,340,2012-11-28 10:46:00
4:53 AM,50.0,46.9,89,30.27,4.0,North,6.9,-,N/A,,Overcast,350,2012-11-28 10:53:00
5:53 AM,50.0,46.0,86,30.30,5.0,North,3.5,-,N/A,,Overcast,350,2012-11-28 11:53:00
6:53 AM,48.9,44.1,83,30.31,8.0,North,8.1,-,N/A,,Overcast,360,2012-11-28 12:53:00
7:53 AM,48.0,42.1,80,30.34,8.0,NNW,6.9,-,N/A,,Overcast,340,2012-11-28 13:53:00
8:53 AM,48.9,41.0,74,30.37,9.0,North,8.1,-,N/A,,Overcast,360,2012-11-28 14:53:00
9:53 AM,53.1,41.0,64,30.37,10.0,Variable,5.8,-,N/A,,Mostly Cloudy,0,2012-11-28 15:53:00
10:14 AM,53.6,41.0,62,30.37,10.0,North,6.9,-,N/A,,Scattered Clouds,350,2012-11-28 16:14:00
10:53 AM,55.0,41.0,59,30.36,10.0,NNW,9.2,-,N/A,,Clear,340,2012-11-28 16:53:00
11:53 AM,57.0,39.0,51,30.33,10.0,NE,5.8,17.3,N/A,,Clear,50,2012-11-28 17:53:00
12:53 PM,60.1,37.9,44,30.30,10.0,NNE,9.2,-,N/A,,Clear,20,2012-11-28 18:53:00
1:53 PM,62.1,37.0,39,30.28,10.0,NNE,6.9,-,N/A,,Clear,30,2012-11-28 19:53:00
2:53 PM,62.1,37.0,39,30.28,10.0,Variable,5.8,-,N/A,,Clear,0,2012-11-28 20:53:00
3:53 PM,60.1,37.0,42,30.29,10.0,NNE,4.6,-,N/A,,Clear,20,2012-11-28 21:53:00
4:53 PM,53.1,39.9,61,30.30,10.0,NNE,3.5,-,N/A,,Clear,20,2012-11-28 22:53:00
5:53 PM,46.0,41.0,83,30.32,10.0,Calm,Calm,-,N/A,,Clear,0,2012-11-28 23:53:00
6:53 PM,43.0,39.9,89,30.34,8.0,Calm,Calm,-,N/A,,Clear,0,2012-11-29 00:53:00
7:53 PM,43.0,39.9,89,30.35,7.0,Calm,Calm,-,N/A,,Clear,0,2012-11-29 01:53:00
8:53 PM,39.9,37.9,93,30.37,5.0,Calm,Calm,-,N/A,,Clear,0,2012-11-29 02:53:00
9:53 PM,39.0,37.0,93,30.36,5.0,Calm,Calm,-,N/A,,Clear,0,2012-11-29 03:53:00
10:53 PM,37.9,36.0,93,30.36,5.0,Calm,Calm,-,N/A,,Clear,0,2012-11-29 04:53:00
11:53 PM,36.0,34.0,93,30.35,5.0,Calm,Calm,-,N/A,,Partly Cloudy,0,2012-11-29 05:53:00